Weather History for EINN - November, 2012

Change the Weather History Date:

Monday, November 19, 2012

  Actual Average Record
Temperature  
Mean Temperature 51 °F -  
Max Temperature 54 °F 49 °F 57 °F (2003)
Min Temperature 48 °F 39 °F 33 °F (1999)
Degree Days  
Heating Degree Days 14    
Growing Degree Days 1 (Base 50)    
Moisture  
Dew Point 49 °F    
Average Humidity 89    
Maximum Humidity 94    
Minimum Humidity 77    
Precipitation  
Precipitation 0.01 in 0.13 in - ()
Sea Level Pressure  
Sea Level Pressure 29.36 in    
Wind  
Wind Speed 17 mph ()    
Max Wind Speed 25 mph    
Max Gust Speed -    
Visibility 6.5 miles    
Events Rain    
Averages and records for this station are not official NWS values.
T = Trace of Precipitation, MM = Missing Value Source: Averaged Metar Reports

Daily Weather History Graph

Daily Weather History Graph

Search for Another Location

Airport or City:

Trip Planner

Search our weather history database for the weather conditions in past years. The results will help you decide how hot, cold, wet, or windy it might be!

Date:

Astronomy

Nov. 19, 2012 Rise Set
Actual Time 8:05 AM GMT 4:35 PM GMT
Civil Twilight 7:27 AM GMT 5:14 PM GMT
Nautical Twilight 6:44 AM GMT 5:57 PM GMT
Astronomical Twilight 6:03 AM GMT 6:37 PM GMT
Moon 12:44 PM GMT (11/19) 11:08 PM GMT (11/19)
Length of Visible Light 9h 47m
Length of Day
8h 30m
Waxing Crescent, 38% of the Moon is Illuminated
Nov 19
Waxing Crescent
Nov 20
First Quarter
Nov 28
Full
Dec 6
Last Quarter
Dec 13
New

Hourly Weather History & Observations

Time (GMT) Temp. Dew Point Humidity Pressure Visibility Wind Dir Wind Speed Gust Speed Precip Events Conditions
12:00 AM 53 °F 51 °F 88% 29.40 in 12 mi South 24.6 mph - -   Partly Cloudy
12:00 AM 53.6 °F 50.0 °F 88% 29.39 in 6.2 mi South 24.2 mph - N/A   Mostly Cloudy
12:30 AM 53.6 °F 50.0 °F 88% 29.36 in 6.2 mi South 25.3 mph - N/A Rain Light Rain
1:00 AM 53.6 °F 51.8 °F 94% 29.36 in 4.3 mi South 24.2 mph - N/A Rain Light Rain
1:30 AM 53.6 °F 51.8 °F 94% 29.36 in 5.0 mi SSE 25.3 mph - N/A Rain Light Rain
2:00 AM 53.6 °F 51.8 °F 94% 29.33 in 6.2 mi SSE 21.9 mph - N/A Rain Light Rain
2:30 AM 53.6 °F 51.8 °F 94% 29.33 in 5.0 mi South 23.0 mph - N/A Rain Light Rain
3:00 AM 53.6 °F 51.8 °F 94% 29.30 in 6.2 mi South 25.3 mph - N/A   Mostly Cloudy
3:30 AM 53.6 °F 51.8 °F 94% 29.30 in 6.2 mi South 25.3 mph - N/A   Mostly Cloudy
4:00 AM 53.6 °F 51.8 °F 94% 29.30 in 3.1 mi SSE 23.0 mph - N/A Rain Light Rain
4:30 AM 53.6 °F 51.8 °F 94% 29.27 in 5.0 mi SSE 24.2 mph - N/A Rain Light Rain
5:00 AM 53.6 °F 51.8 °F 94% 29.27 in 6.2 mi SSE 19.6 mph - N/A   Mostly Cloudy
5:30 AM 53.6 °F 51.8 °F 94% 29.27 in 6.2 mi SSE 18.4 mph - N/A   Mostly Cloudy
6:00 AM 54 °F 52 °F 91% 29.28 in 12 mi South 13.4 mph - -   Partly Cloudy
6:00 AM 53.6 °F 51.8 °F 94% 29.27 in 6.2 mi South 13.8 mph - N/A   Mostly Cloudy
6:30 AM 53.6 °F 51.8 °F 94% 29.27 in 6.2 mi SSE 13.8 mph - N/A   Mostly Cloudy
7:00 AM 53.6 °F 51.8 °F 94% 29.27 in 6.2 mi South 11.5 mph - N/A   Mostly Cloudy
7:30 AM 53.6 °F 51.8 °F 94% 29.27 in 6.2 mi South 8.1 mph - N/A   Mostly Cloudy
8:00 AM 53.6 °F 51.8 °F 94% 29.27 in 6.2 mi South 13.8 mph - N/A   Mostly Cloudy
8:30 AM 53.6 °F 51.8 °F 94% 29.30 in 4.3 mi South 13.8 mph - N/A   Light Drizzle
9:00 AM 53.6 °F 50.0 °F 88% 29.30 in 6.2 mi South 12.7 mph - N/A   Scattered Clouds
9:30 AM 53.6 °F 50.0 °F 88% 29.30 in 6.2 mi South 13.8 mph - N/A   Light Drizzle
10:00 AM 53.6 °F 50.0 °F 88% 29.30 in 6.2 mi SSW 12.7 mph - N/A   Mostly Cloudy
10:30 AM 53.6 °F 50.0 °F 88% 29.33 in 6.2 mi SSW 19.6 mph - N/A   Mostly Cloudy
11:00 AM 53.6 °F 50.0 °F 88% 29.33 in 6.2 mi SSW 18.4 mph - N/A   Mostly Cloudy
11:30 AM 55.4 °F 48.2 °F 77% 29.33 in 6.2 mi SW 21.9 mph - N/A Rain Light Rain
12:00 PM 53 °F 50 °F 86% 29.36 in 12 mi SSW 20.1 mph - - Rain Light Rain
12:00 PM 53.6 °F 50.0 °F 88% 29.36 in 6.2 mi SSW 19.6 mph - N/A   Mostly Cloudy
12:30 PM 55.4 °F 50.0 °F 82% 29.36 in 6.2 mi SW 19.6 mph - N/A   Mostly Cloudy
1:00 PM 53.6 °F 48.2 °F 82% 29.36 in 6.2 mi SW 20.7 mph - N/A   Overcast
1:30 PM 53.6 °F 48.2 °F 82% 29.39 in 6.2 mi SW 17.3 mph - N/A   Mostly Cloudy
2:00 PM 53.6 °F 48.2 °F 82% 29.39 in 6.2 mi SW 18.4 mph - N/A   Mostly Cloudy
2:30 PM 53.6 °F 48.2 °F 82% 29.42 in 6.2 mi WSW 16.1 mph - N/A   Mostly Cloudy
3:00 PM 53.6 °F 50.0 °F 88% 29.42 in 6.2 mi WSW 11.5 mph - N/A   Mostly Cloudy
3:30 PM 51.8 °F 48.2 °F 88% 29.42 in 6.2 mi SW 15.0 mph - N/A   Mostly Cloudy
4:00 PM 51.8 °F 50.0 °F 94% 29.42 in 6.2 mi WSW 11.5 mph - N/A   Mostly Cloudy
4:30 PM 51.8 °F 48.2 °F 88% 29.44 in 6.2 mi SSW 10.4 mph - N/A   Mostly Cloudy
5:00 PM 51.8 °F 48.2 °F 88% 29.44 in 6.2 mi SSW 9.2 mph - N/A   Mostly Cloudy
5:30 PM 51.8 °F 46.4 °F 82% 29.44 in 6.2 mi South 10.4 mph - N/A   Mostly Cloudy
6:00 PM 51 °F 47 °F 80% 29.47 in 12 mi South 8.9 mph - -   Partly Cloudy
6:00 PM 50.0 °F 46.4 °F 87% 29.44 in 6.2 mi South 9.2 mph - N/A   Mostly Cloudy
6:30 PM 50.0 °F 46.4 °F 87% 29.44 in 6.2 mi SSE 9.2 mph - N/A   Partly Cloudy
7:00 PM 48.2 °F 46.4 °F 93% 29.44 in 6.2 mi SE 9.2 mph - N/A   Scattered Clouds
7:30 PM 50.0 °F 46.4 °F 87% 29.44 in 6.2 mi ESE 9.2 mph - N/A   Scattered Clouds
8:00 PM 50.0 °F 46.4 °F 87% 29.44 in 6.2 mi ESE 9.2 mph - N/A   Mostly Cloudy
8:30 PM 50.0 °F 48.2 °F 94% 29.42 in 6.2 mi ESE 10.4 mph - N/A   Mostly Cloudy
9:00 PM 50.0 °F 48.2 °F 94% 29.42 in 6.2 mi SE 13.8 mph - N/A Rain Light Rain
9:30 PM 51.8 °F 48.2 °F 88% 29.42 in 6.2 mi SSE 11.5 mph - N/A   Mostly Cloudy
10:00 PM 50.0 °F 46.4 °F 87% 29.42 in 6.2 mi SE 9.2 mph - N/A   Mostly Cloudy
10:30 PM 50.0 °F 46.4 °F 87% 29.42 in 6.2 mi South 11.5 mph - N/A   Mostly Cloudy
11:00 PM 50.0 °F 46.4 °F 87% 29.42 in - SSE 12.7 mph - N/A   Clear
11:30 PM 50.0 °F 46.4 °F 87% 29.42 in - SSE 16.1 mph - N/A   Clear